Epoch 2021 July 5.0 TT = JDT 2459400.5
T 2021 June 23.56888 TT Veres
q 3.2469869 (2000.0) P Q
n 0.05771185 Peri. 313.09672 -0.05997864 -0.99266639
a 6.6317181 Node 139.98050 +0.95668690 -0.08717305
e 0.5103853 Incl. 9.39374 +0.28487320 +0.08375143
P 17.1
From 144 observations 2003 Nov. 19-2020 Dec. 1, mean residual 0".5.